Location: Kermapucano
(48.0667°N, 3.3000°W)
Time: 19:49:12
(UTC+00:00)

Cosmos 2298 Rocket - Pass Details

Date: 29 November 2020
Orbit: 775 x 784 km, 74.0° (Epoch: 27 January)

Event Time Altitude Azimuth Distance (km) Brightness Sun altitude
Rises 06:59:42 0° 204° (SSW) 3,242 7.3 -6.8°
Reaches altitude 10° 07:02:04 10° 206° (SSW) 2,318 6.5 -6.4°
Maximum altitude 07:07:21 79° 293° (WNW) 796 4.0 -5.6°
Drops below altitude 10° 07:12:40 10° 21° (NNE) 2,335 6.5 -4.8°
Sets 07:15:04 0° 23° (NNE) 3,267 7.2 -4.5°
